H1 CPF 2 NER 2024 7 2 9 184 01 glonass143 H2 2007501 9143 46805 2024 7 2 0 0 0 2024 7 5 23 45 0 900 1 1 0 0 0 1 H9 10 0 60493 0.00000 0 -7241346.631 23236902.008 7614793.276 10 0 60493 900.00000 0 -7418103.688 23975863.483 4516407.766 10 0 60493 1800.00000 0 -7408392.214 24362142.630 1330206.572 10 0 60493 2700.00000 0 -7260478.121 24368425.660 -1881861.652 10 0 60493 3600.00000 0 -7027502.340 23979844.294 -5057316.067 10 0 60493 4500.00000 0 -6764993.527 23194685.278 -8134366.154 10 0 60493 5400.00000 0 -6528284.991 22024564.565 -11053122.269 10 0 60493 6300.00000 0 -6369946.417 20494057.816 -13756769.677 10 0 60493 7200.00000 0 -6337340.365 18639802.066 -16192682.246 10 0 60493 8100.00000 0 -6470408.222 16509105.821 -18313453.303 10 0 60493 9000.00000 0 -6799780.422 14158125.705 -20077823.046 10 0 60493 9900.00000 0 -7345291.867 11649686.062 -21451484.049 10 0 60493 10800.00000 0 -8114966.080 9050832.867 -22407749.189 10 0 60493 11700.00000 0 -9104511.659 6430224.252 -22928069.117 10 0 60493 12600.00000 0 -10297352.735 3855466.658 -23002389.566 10 0 60493 13500.00000 0 -11665192.566 1390507.512 -22629341.966 10 0 60493 14400.00000 0 -13169086.799 -906807.305 -21816264.181 10 0 60493 15300.00000 0 -14760981.496 -2986910.087 -20579051.380 10 0 60493 16200.00000 0 -16385651.402 -4810332.334 -18941840.413 10 0 60493 17100.00000 0 -17982957.197 -6349095.589 -16936534.099 10 0 60493 18000.00000 0 -19490326.982 -7587615.556 -14602175.020 10 0 60493 18900.00000 0 -20845357.886 -8523083.513 -11984181.186 10 0 60493 19800.00000 0 -21988428.626 -9165310.981 -9133458.660 10 0 60493 20700.00000 0 -22865213.358 -9536046.083 -6105408.630 10 0 60493 21600.00000 0 -23428991.380 -9667792.193 -2958848.481 10 0 60493 22500.00000 0 -23642655.810 -9602180.297 245131.943 10 0 60493 23400.00000 0 -23480337.077 -9387965.112 3444356.376 10 0 60493 24300.00000 0 -22928573.297 -9078730.626 6576767.270 10 0 60493 25200.00000 0 -21986978.623 -8730402.749 9581626.577 10 0 60493 26100.00000 0 -20668381.761 -8398674.546 12400688.908 10 0 60493 27000.00000 0 -18998428.901 -8136452.961 14979324.614 10 0 60493 27900.00000 0 -17014667.639 -7991434.684 17267571.498 10 0 60493 28800.00000 0 -14765149.874 -8003913.198 19221095.393 10 0 60493 29700.00000 0 -12306611.468 -8204909.144 20802041.842 10 0 60493 30600.00000 0 -9702303.736 -8614702.517 21979763.216 10 0 60493 31500.00000 0 -7019565.979 -9241828.432 22731408.028 10 0 60493 32400.00000 0 -4327238.761 -10082578.932 23042361.689 10 0 60493 33300.00000 0 -1693023.995 -11121032.352 22906530.656 10 0 60493 34200.00000 0 819099.943 -12329610.004 22326464.552 10 0 60493 35100.00000 0 3151302.082 -13670138.041 21313313.703 10 0 60493 36000.00000 0 5254062.297 -15095371.516 19886622.317 10 0 60493 36900.00000 0 7087985.345 -16550918.215 18073960.442 10 0 60493 37800.00000 0 8625190.801 -17977483.076 15910400.753 10 0 60493 38700.00000 0 9850221.490 -19313340.254 13437849.096 10 0 60493 39600.00000 0 10760432.828 -20496929.874 10704240.659 10 0 60493 40500.00000 0 11365847.004 -21469470.795 7762616.406 10 0 60493 41400.00000 0 11688478.322 -22177479.435 4670096.948 10 0 60493 42300.00000 0 11761158.277 -22575088.073 1486773.528 10 0 60493 43200.00000 0 11625910.218 -22626064.083 -1725462.338 10 0 60493 44100.00000 0 11331942.680 -22305443.782 -4904127.402 10 0 60493 45000.00000 0 10933346.888 -21600710.632 -7987369.160 10 0 60493 45900.00000 0 10486596.689 -20512466.796 -10915177.566 10 0 60493 46800.00000 0 10047957.758 -19054568.430 -13630561.450 10 0 60493 47700.00000 0 9670916.847 -17253717.937 -16080665.703 10 0 60493 48600.00000 0 9403740.987 -15148529.493 -18217806.701 10 0 60493 49500.00000 0 9287270.911 -12788106.474 -20000405.212 10 0 60493 50400.00000 0 9353042.916 -10230190.084 -21393798.252 10 0 60493 51300.00000 0 9621819.153 -7538956.515 -22370914.020 10 0 60493 52200.00000 0 10102588.922 -4782554.569 -22912796.965 10 0 60493 53100.00000 0 10792083.368 -2030486.498 -23008973.047 10 0 60493 54000.00000 0 11674824.167 649058.951 -22657648.572 10 0 60493 54900.00000 0 12723704.191 3191810.532 -21865739.196 10 0 60493 55800.00000 0 13901075.589 5539847.626 -20648729.013 10 0 60493 56700.00000 0 15160299.420 7643762.016 -19030362.870 10 0 60493 57600.00000 0 16447691.493 9464459.382 -17042178.231 10 0 60493 58500.00000 0 17704782.412 10974526.707 -14722886.000 10 0 60493 59400.00000 0 18870796.647 12159110.177 -12117612.562 10 0 60493 60300.00000 0 19885246.235 13016268.621 -9277018.000 10 0 60493 61200.00000 0 20690529.887 13556789.576 -6256307.893 10 0 60493 62100.00000 0 21234428.146 13803477.588 -3114158.124 10 0 60493 63000.00000 0 21472389.586 13789946.451 88426.147 10 0 60493 63900.00000 0 21369511.944 13558967.791 3289294.918 10 0 60493 64800.00000 0 20902134.938 13160446.922 6426358.019 10 0 60493 65700.00000 0 20058977.899 12649112.306 9438786.564 10 0 60493 66600.00000 0 18841774.475 12082016.715 12268187.936 10 0 60493 67500.00000 0 17265377.713 11515955.822 14859731.769 10 0 60493 68400.00000 0 15357330.896 11004913.040 17163205.598 10 0 60493 69300.00000 0 13156921.670 10597638.066 19133980.322 10 0 60493 70200.00000 0 10713758.330 10335460.712 20733867.583 10 0 60493 71100.00000 0 8085926.667 10250431.573 21931853.322 10 0 60493 72000.00000 0 5337803.047 10363867.390 22704694.103 10 0 60493 72900.00000 0 2537613.256 10685362.047 23037365.358 10 0 60493 73800.00000 0 -245162.965 11212304.863 22923353.321 10 0 60493 74700.00000 0 -2942435.437 11929926.857 22364785.160 10 0 60493 75600.00000 0 -5490086.909 12811873.792 21372394.561 10 0 60493 76500.00000 0 -7830390.375 13821283.054 19965322.890 10 0 60493 77400.00000 0 -9914161.022 14912320.358 18170758.925 10 0 60493 78300.00000 0 -11702554.196 16032113.041 16023423.043 10 0 60493 79200.00000 0 -13168435.117 17122999.893 13564904.691 10 0 60493 80100.00000 0 -14297263.561 18125003.809 10842864.841 10 0 60493 81000.00000 0 -15087456.682 18978423.754 7910117.908 10 0 60493 81900.00000 0 -15550214.935 19626436.962 4823610.235 10 0 60493 82800.00000 0 -15708818.468 20017601.305 1643314.633 10 0 60493 83700.00000 0 -15597423.798 20108151.441 -1568937.505 10 0 60493 84600.00000 0 -15259411.834 19863990.732 -4750663.458 10 0 60493 85500.00000 0 -14745357.500 19262293.423 -7839951.568 10 0 60494 0.00000 0 -14110707.541 18292648.083 -10776673.836 10 0 60494 900.00000 0 -13413265.209 16957692.003 -13503665.687 10 0 60494 1800.00000 0 -12710590.099 15273209.831 -15967845.040 10 0 60494 2700.00000 0 -12057422.924 13267689.372 -18121253.327 10 0 60494 3600.00000 0 -11503245.887 10981353.524 -19921993.617 10 0 60494 4500.00000 0 -11090082.187 8464707.793 -21335048.797 10 0 60494 5400.00000 0 -10850628.214 5776663.839 -22332963.559 10 0 60494 6300.00000 0 -10806797.586 2982317.160 -22896377.013 10 0 60494 7200.00000 0 -10968738.540 150471.490 -23014395.939 10 0 60494 8100.00000 0 -11334365.976 -2648987.096 -22684801.797 10 0 60494 9000.00000 0 -11889427.591 -5347757.331 -21914087.998 10 0 60494 9900.00000 0 -12608100.934 -7881720.509 -20717327.164 10 0 60494 10800.00000 0 -13454095.785 -10193361.390 -19117871.391 10 0 60494 11700.00000 0 -14382214.986 -12233912.352 -17146891.693 10 0 60494 12600.00000 0 -15340307.538 -13965132.521 -14842765.872 10 0 60494 13500.00000 0 -16271531.322 -15360649.075 -12250326.984 10 0 60494 14400.00000 0 -17116829.781 -16406806.263 -9419987.198 10 0 60494 15300.00000 0 -17817517.904 -17102988.290 -6406754.352 10 0 60494 16200.00000 0 -18317868.367 -17461404.365 -3269160.545 10 0 60494 17100.00000 0 -18567588.670 -17506346.652 -68123.828 10 0 60494 18000.00000 0 -18524084.822 -17272953.965 3134234.607 10 0 60494 18900.00000 0 -18154416.180 -16805534.642 6275794.629 10 0 60494 19800.00000 0 -17436859.119 -16155520.362 9295639.275 10 0 60494 20700.00000 0 -16362013.687 -15379137.911 12135231.502 10 0 60494 21600.00000 0 -14933406.630 -14534897.436 14739543.027 10 0 60494 22500.00000 0 -13167565.157 -13681003.067 17058113.821 10 0 60494 23400.00000 0 -11093557.868 -12872794.713 19046022.368 10 0 60494 24300.00000 0 -8752021.321 -12160328.207 20664748.677 10 0 60494 25200.00000 0 -6193711.834 -11586194.939 21882914.197 10 0 60494 26100.00000 0 -3477641.653 -11183671.971 22676885.110 10 0 60494 27000.00000 0 -668875.591 -10975279.769 23031228.030 10 0 60494 27900.00000 0 2163921.942 -10971807.755 22939009.753 10 0 60494 28800.00000 0 4951089.244 -11171848.504 22401935.382 10 0 60494 29700.00000 0 7624612.593 -11561860.403 21430322.003 10 0 60494 30600.00000 0 10120706.151 -12116756.693 20042907.843 10 0 60494 31500.00000 0 12382220.563 -12800996.992 18266499.773 10 0 60494 32400.00000 0 14360781.081 -13570136.384 16135464.915 10 0 60494 33300.00000 0 16018566.888 -14372767.921 13691075.008 10 0 60494 34200.00000 0 17329657.735 -15152777.596 10980715.134 10 0 60494 35100.00000 0 18280891.825 -15851817.373 8056971.131 10 0 60494 36000.00000 0 18872199.007 -16411892.189 4976612.688 10 0 60494 36900.00000 0 19116395.237 -16777951.521 1799491.509 10 0 60494 37800.00000 0 19038446.972 -16900375.402 -1412624.037 10 0 60494 38700.00000 0 18674236.585 -16737248.833 -4597254.788 10 0 60494 39600.00000 0 18068881.150 -16256327.108 -7692432.998 10 0 60494 40500.00000 0 17274676.100 -15436607.507 -10637916.237 10 0 60494 41400.00000 0 16348751.261 -14269439.371 -13376368.381 10 0 60494 42300.00000 0 15350539.161 -12759124.163 -15854483.668 10 0 60494 43200.00000 0 14339163.427 -10922978.814 -18024031.147 10 0 60494 44100.00000 0 13370858.413 -8790858.461 -19842798.522 10 0 60494 45000.00000 0 12496529.712 -6404157.609 -21275416.645 10 0 60494 45900.00000 0 11759558.970 -3814330.874 -22294048.480 10 0 60494 46800.00000 0 11193945.786 -1080994.588 -22878929.282 10 0 60494 47700.00000 0 10822864.994 1730311.773 -23018747.776 10 0 60494 48600.00000 0 10657699.757 4550611.313 -22710861.353 10 0 60494 49500.00000 0 10697590.687 7310119.326 -21961341.595 10 0 60494 50400.00000 0 10929519.275 9940907.649 -20784849.717 10 0 60494 51300.00000 0 11328921.315 12379493.343 -19204344.765 10 0 60494 52200.00000 0 11860803.682 14569244.611 -17250630.633 10 0 60494 53100.00000 0 12481316.593 16462504.561 -14961750.977 10 0 60494 54000.00000 0 13139714.359 18022345.359 -12382244.074 10 0 60494 54900.00000 0 13780621.308 19223880.843 -9562272.320 10 0 60494 55800.00000 0 14346506.754 20055084.150 -6556643.544 10 0 60494 56700.00000 0 14780264.178 20517077.724 -3423743.420 10 0 60494 57600.00000 0 15027785.465 20623885.156 -224399.945 10 0 60494 58500.00000 0 15040421.353 20401656.830 2979297.690 10 0 60494 59400.00000 0 14777224.183 19887403.362 6125202.696 10 0 60494 60300.00000 0 14206878.282 19127291.278 9152313.369 10 0 60494 61200.00000 0 13309236.543 18174573.551 12001951.517 10 0 60494 62100.00000 0 12076398.398 17087242.630 14618894.069 10 0 60494 63000.00000 0 10513283.519 15925504.866 16952436.374 10 0 60494 63900.00000 0 8637676.722 14749182.406 18957367.209 10 0 60494 64800.00000 0 6479741.400 13615151.239 20594837.373 10 0 60494 65700.00000 0 4081020.815 12574922.326 21833105.933 10 0 60494 66600.00000 0 1492967.627 11672466.496 22648150.438 10 0 60494 67500.00000 0 -1224938.595 10942373.539 23024130.023 10 0 60494 68400.00000 0 -4007409.268 10408421.931 22953692.909 10 0 60494 69300.00000 0 -6785809.670 10082618.693 22438122.490 10 0 60494 70200.00000 0 -9490766.226 9964749.339 21487319.048 10 0 60494 71100.00000 0 -12054811.561 10042456.893 20119616.896 10 0 60494 72000.00000 0 -14414958.757 10291846.989 18361439.659 10 0 60494 72900.00000 0 -16515098.864 10678594.187 16246799.347 10 0 60494 73800.00000 0 -18308122.609 11159503.670 13816647.697 10 0 60494 74700.00000 0 -19757678.188 11684463.218 11118091.258 10 0 60494 75600.00000 0 -20839491.864 12198703.705 8203484.417 10 0 60494 76500.00000 0 -21542195.972 12645272.960 5129417.207 10 0 60494 77400.00000 0 -21867629.407 12967618.396 1955617.181 10 0 60494 78300.00000 0 -21830597.702 13112168.714 -1256213.342 10 0 60494 79200.00000 0 -21458102.699 13030804.602 -4443601.720 10 0 60494 80100.00000 0 -20788074.257 12683112.659 -7544526.993 10 0 60494 81000.00000 0 -19867657.722 12038325.749 -10498634.803 10 0 60494 81900.00000 0 -18751129.883 11076866.117 -13248420.589 10 0 60494 82800.00000 0 -17497531.995 9791424.463 -15740357.028 10 0 60494 83700.00000 0 -16168120.475 8187527.851 -17925942.906 10 0 60494 84600.00000 0 -14823743.570 6283571.144 -19762652.385 10 0 60494 85500.00000 0 -13522255.240 4110309.380 -21214765.748 10 0 60495 0.00000 0 -12316075.803 1709831.664 -22254065.275 10 0 60495 900.00000 0 -11250001.606 -865942.565 -22860383.301 10 0 60495 1800.00000 0 -10359357.432 -3557179.339 -23021990.771 10 0 60495 2700.00000 0 -9668566.784 -6298382.720 -22735821.045 10 0 60495 3600.00000 0 -9190201.120 -9020887.422 -22007523.566 10 0 60495 4500.00000 0 -8924546.469 -11655489.176 -20851347.499 10 0 60495 5400.00000 0 -8859704.654 -14135103.462 -19289857.895 10 0 60495 6300.00000 0 -8972223.716 -16397342.385 -17353490.293 10 0 60495 7200.00000 0 -9228229.809 -18386902.899 -15079952.718 10 0 60495 8100.00000 0 -9585011.747 -20057667.641 -12513486.989 10 0 60495 9000.00000 0 -9992990.398 -21374431.648 -9704003.894 10 0 60495 9900.00000 0 -10397988.931 -22314183.951 -6706109.313 10 0 60495 10800.00000 0 -10743707.400 -22866891.723 -3578040.472 10 0 60495 11700.00000 0 -10974296.588 -23035755.502 -380533.208 10 0 60495 12600.00000 0 -11036922.039 -22836926.178 2824357.454 10 0 60495 13500.00000 0 -10884209.701 -22298696.941 5974460.338 10 0 60495 14400.00000 0 -10476469.811 -21460205.324 9008691.350 10 0 60495 15300.00000 0 -9783605.038 -20369700.796 11868233.577 10 0 60495 16200.00000 0 -8786622.356 -19082451.332 14497671.625 10 0 60495 17100.00000 0 -7478684.729 -17658377.199 16846058.671 10 0 60495 18000.00000 0 -5865657.992 -16159511.228 18867896.134 10 0 60495 18900.00000 0 -3966129.307 -14647391.720 20524007.794 10 0 60495 19800.00000 0 -1810895.453 -13180496.608 21782292.287 10 0 60495 20700.00000 0 558058.894 -11811825.477 22618340.199 10 0 60495 21600.00000 0 3089051.787 -10586729.704 23015904.538 10 0 60495 22500.00000 0 5722603.170 -9541080.565 22967215.964 10 0 60495 23400.00000 0 8393665.355 -8699851.097 22473136.847 10 0 60495 24300.00000 0 11034093.906 -8076170.475 21543151.021 10 0 60495 25200.00000 0 13575257.974 -7670890.058 20195188.910 10 0 60495 26100.00000 0 15950683.011 -7472679.248 18455290.614 10 0 60495 27000.00000 0 18098617.131 -7458647.226 16357112.410 10 0 60495 27900.00000 0 19964415.057 -7595464.782 13941285.067 10 0 60495 28800.00000 0 21502640.667 -7840939.429 11254635.263 10 0 60495 29700.00000 0 22678800.397 -8145977.760 8349284.203 10 0 60495 30600.00000 0 23470634.784 -8456852.458 5281640.137 10 0 60495 31500.00000 0 23868913.606 -8717678.072 2111303.976 10 0 60495 32400.00000 0 23877700.800 -8872990.491 -1100090.812 10 0 60495 33300.00000 0 23514077.584 -8870320.164 -4290081.118 10 0 60495 34200.00000 0 22807335.158 -8662649.060 -7396595.897 10 0 60495 35100.00000 0 21797670.948 -8210645.967 -10359171.986 10 0 60495 36000.00000 0 20534443.460 -7484584.002 -13120139.439 10 0 60495 36900.00000 0 19074059.721 -6465857.596 -15625752.251 10 0 60495 37800.00000 0 17477584.853 -5148033.274 -17827241.635 10 0 60495 38700.00000 0 15808175.108 -3537388.344 -19681770.672 10 0 60495 39600.00000 0 14128443.000 -1652913.496 -21153271.303 10 0 60495 40500.00000 0 12497865.858 474221.981 -22213147.234 10 0 60495 41400.00000 0 10970346.931 2801720.885 -22840829.174 10 0 60495 42300.00000 0 9592031.464 5277681.380 -23024171.882 10 0 60495 43200.00000 0 8399469.049 7842529.745 -22759685.700 10 0 60495 44100.00000 0 7418198.644 10431282.325 -22052598.601 10 0 60495 45000.00000 0 6661814.666 12976042.599 -20916747.979 10 0 60495 45900.00000 0 6131552.106 15408629.610 -19374304.780 10 0 60495 46800.00000 0 5816406.652 17663228.508 -17455335.668 10 0 60495 47700.00000 0 5693783.323 19678953.096 -15197212.109 10 0 60495 48600.00000 0 5730644.781 21402214.021 -12643878.103 10 0 60495 49500.00000 0 5885109.598 22788794.423 -9844991.042 10 0 60495 50400.00000 0 6108431.807 23805547.115 -6854952.657 10 0 60495 51300.00000 0 6347277.139 24431643.274 -3731849.139 10 0 60495 52200.00000 0 6546198.995 24659321.443 -536321.259 10 0 60495 53100.00000 0 6650208.881 24494106.597 2669613.281 10 0 60495 54000.00000 0 6607332.292 23954491.204 5823762.218 10 0 60495 54900.00000 0 6371041.774 23071092.749 8864962.430 10 0 60495 55800.00000 0 5902464.290 21885323.924 11734261.603 10 0 60495 56700.00000 0 5172269.611 20447631.957 14376055.234 10 0 60495 57600.00000 0 4162160.001 18815381.229 16739157.360 10 0 60495 58500.00000 0 2865898.185 17050467.970 18777784.864 10 0 60495 59400.00000 0 1289829.897 15216766.589 20452437.070 10 0 60495 60300.00000 0 -547121.716 13377513.870 21730654.445 10 0 60495 61200.00000 0 -2613990.682 11592739.515 22587642.525 10 0 60495 62100.00000 0 -4868810.845 9916849.383 23006749.707 10 0 60495 63000.00000 0 -7260124.715 8396461.203 22979790.157 10 0 60495 63900.00000 0 -9728897.424 7068582.115 22507205.773 10 0 60495 64800.00000 0 -12210757.967 5959203.223 21598063.935 10 0 60495 65700.00000 0 -14638476.265 5082369.127 20269890.603 10 0 60495 66600.00000 0 -16944574.533 4439760.919 18548341.171 10 0 60495 67500.00000 0 -19063965.523 4020809.834 16466714.455 10 0 60495 68400.00000 0 -20936508.657 3803336.777 14065318.017 10 0 60495 69300.00000 0 -22509377.865 3754690.930 11390696.015 10 0 60495 70200.00000 0 -23739142.320 3833339.683 8494733.504 10 0 60495 71100.00000 0 -24593472.758 3990842.901 5433653.789 10 0 60495 72000.00000 0 -25052401.296 4174128.066 2266927.865 10 0 60495 72900.00000 0 -25109081.253 4327969.749 -943882.928 10 0 60495 73800.00000 0 -24770014.292 4397567.815 -4136328.269 10 0 60495 74700.00000 0 -24054734.742 4331114.226 -7248290.182 10 0 60495 75600.00000 0 -22994963.957 4082238.475 -10219199.739 10 0 60495 76500.00000 0 -21633270.123 3612226.675 -12991224.474 10 0 60495 77400.00000 0 -20021290.047 2891918.799 -15510402.351 10 0 60495 78300.00000 0 -18217588.036 1903202.280 -17727699.368 10 0 60495 79200.00000 0 -16285242.405 640037.355 -19599969.511 10 0 60495 80100.00000 0 -14289261.535 -891030.460 -21090797.929 10 0 60495 81000.00000 0 -12293938.455 -2670893.585 -22171210.748 10 0 60495 81900.00000 0 -10360255.176 -4668441.305 -22820237.808 10 0 60495 82800.00000 0 -8543445.657 -6841631.802 -23025317.620 10 0 60495 83700.00000 0 -6890819.194 -9139032.979 -22782537.112 10 0 60495 84600.00000 0 -5439934.744 -11501768.131 -22096701.949 10 0 60495 85500.00000 0 -4217201.694 -13865785.458 -20981236.557 10 0 60496 0.00000 0 -3236964.473 -16164356.728 -19457916.417 10 0 60496 900.00000 0 -2501107.372 -18330702.243 -17556437.289 10 0 60496 1800.00000 0 -1999195.724 -20300629.709 -15313832.256 10 0 60496 2700.00000 0 -1709144.053 -22015081.229 -12773745.441 10 0 60496 3600.00000 0 -1598382.707 -23422479.343 -9985578.718 10 0 60496 4500.00000 0 -1625471.691 -24480775.755 -7003527.533 10 0 60496 5400.00000 0 -1742092.367 -25159117.487 -3885524.927 10 0 60496 6300.00000 0 -1895331.745 -25439061.439 -692114.524 10 0 60496 7200.00000 0 -2030162.002 -25315287.314 2514725.346 10 0 60496 8100.00000 0 -2092009.784 -24795779.893 5672783.362 10 0 60496 9000.00000 0 -2029306.296 -23901473.864 8720819.386 10 0 60496 9900.00000 0 -1795910.201 -22665376.858 11599747.714 10 0 60496 10800.00000 0 -1353300.941 -21131208.007 14253776.720 10 0 60496 11700.00000 0 -672449.856 -19351609.386 16631483.244 10 0 60496 12600.00000 0 264709.869 -17386005.224 18686801.471 10 0 60496 13500.00000 0 1464276.565 -15298198.151 20379907.958 10 0 60496 14400.00000 0 2919879.588 -13153802.257 21677986.498 10 0 60496 15300.00000 0 4612706.810 -11017619.281 22555858.837 10 0 60496 16200.00000 0 6512060.085 -8951066.272 22996469.761 10 0 60496 17100.00000 0 8576416.971 -7009760.746 22991217.672 10 0 60496 18000.00000 0 10754956.018 -5241362.791 22540124.459 10 0 60496 18900.00000 0 12989483.847 -3683762.924 21651841.263 10 0 60496 19800.00000 0 15216685.490 -2363690.303 20343489.538 10 0 60496 20700.00000 0 17370605.855 -1295798.619 18640339.700 10 0 60496 21600.00000 0 19385260.274 -482267.373 16575332.577 10 0 60496 22500.00000 0 21197266.273 87065.124 14188451.734 10 0 60496 23400.00000 0 22748387.257 434042.716 11525957.721 10 0 60496 24300.00000 0 23987881.928 591034.119 8639498.038 10 0 60496 25200.00000 0 24874560.825 599326.174 5585109.292 10 0 60496 26100.00000 0 25378463.146 507135.559 2422130.475 10 0 60496 27000.00000 0 25482082.655 367323.324 -787951.608 10 0 60496 27900.00000 0 25181090.192 234909.498 -3982702.060 10 0 60496 28800.00000 0 24484521.510 164493.841 -7099958.789 10 0 60496 29700.00000 0 23414421.717 207693.105 -10079049.972 10 0 60496 30600.00000 0 22004960.759 410704.640 -12861983.463 10 0 60496 31500.00000 0 20301056.833 812100.979 -15394583.926 10 0 60496 32400.00000 0 18356565.616 1440950.194 -17627554.718 10 0 60496 33300.00000 0 16232111.538 2315342.958 -19517443.127 10 0 60496 34200.00000 0 13992652.484 3441389.811 -21027489.712 10 0 60496 35100.00000 0 11704880.403 4812732.132 -22128345.018 10 0 60496 36000.00000 0 9434566.958 6410588.398 -22798639.786 10 0 60496 36900.00000 0 7243965.424 8204334.582 -23025397.814 10 0 60496 37800.00000 0 5189377.309 10152594.951 -22804283.840 10 0 60496 38700.00000 0 3318984.885 12204798.039 -22139682.112 10 0 60496 39600.00000 0 1671039.406 14303132.889 -21044604.597 10 0 60496 40500.00000 0 272479.540 16384823.994 -19540431.096 10 0 60496 41400.00000 0 -861963.685 18384629.913 -17656486.679 10 0 60496 42300.00000 0 -1730139.643 20237461.218 -15429465.031 10 0 60496 43200.00000 0 -2342314.851 21881008.430 -12902709.181 10 0 60496 44100.00000 0 -2720482.417 23258270.196 -10125363.848 10 0 60496 45000.00000 0 -2897175.108 24319876.153 -7151416.159 10 0 60496 45900.00000 0 -2913833.699 25026107.558 -4038643.611 10 0 60496 46800.00000 0 -2818800.890 25348531.503 -847489.980 10 0 60496 47700.00000 0 -2665026.664 25271180.726 2360108.709 10 0 60496 48600.00000 0 -2507582.901 24791230.177 5521925.185 10 0 60496 49500.00000 0 -2401092.889 23919142.574 8576645.485 10 0 60496 50400.00000 0 -2397184.667 22678277.383 11465053.726 10 0 60496 51300.00000 0 -2542075.917 21103980.047 14131174.316 10 0 60496 52200.00000 0 -2874392.344 19242189.788 16523349.944 10 0 60496 53100.00000 0 -3423311.514 17147624.205 18595234.997 10 0 60496 54000.00000 0 -4207110.382 14881616.186 20306685.960 10 0 60496 54900.00000 0 -5232177.867 12509692.784 21624532.407 10 0 60496 55800.00000 0 -6492534.399 10098996.109 22523214.456 10 0 60496 56700.00000 0 -7969879.458 7715652.566 22985275.087 10 0 60496 57600.00000 0 -9634166.235 5422198.643 23001698.331 10 0 60496 58500.00000 0 -11444680.815 3275169.087 22572086.980 10 0 60496 59400.00000 0 -13351582.424 1322946.540 21704676.307 10 0 60496 60300.00000 0 -15297842.134 -396039.009 20416183.049 10 0 60496 61200.00000 0 -17221500.752 -1854686.862 18731491.836 10 0 60496 62100.00000 0 -19058153.054 -3038121.684 16683184.100 10 0 60496 63000.00000 0 -20743555.770 -3944072.071 14310917.442 10 0 60496 63900.00000 0 -22216250.971 -4582716.090 11660666.346 10 0 60496 64800.00000 0 -23420095.356 -4976000.491 8783837.887 10 0 60496 65700.00000 0 -24306589.259 -5156462.372 5736278.795 10 0 60496 66600.00000 0 -24836907.065 -5165603.121 2577192.670 10 0 60496 67500.00000 0 -24983542.843 -5051883.590 -632011.726 10 0 60496 68400.00000 0 -24731500.894 -4868425.756 -3828918.482 10 0 60496 69300.00000 0 -24078979.947 -4670518.836 -6951324.917 10 0 60496 70200.00000 0 -23037521.103 -4513036.445 -9938459.769 10 0 60496 71100.00000 0 -21631612.355 -4447875.336 -12732174.528 10 0 60496 72000.00000 0 -19897765.628 -4521525.507 -15278083.656 10 0 60496 72900.00000 0 -17883104.739 -4772875.882 -17526630.659 10 0 60496 73800.00000 0 -15643523.392 -5231349.736 -19434058.510 10 0 60496 74700.00000 0 -13241490.571 -5915449.853 -20963265.052 10 0 60496 75600.00000 0 -10743595.430 -6831775.938 -22084526.535 10 0 60496 76500.00000 0 -8217934.594 -7974556.585 -22776075.257 10 0 60496 77400.00000 0 -5731451.185 -9325716.211 -23024520.313 10 0 60496 78300.00000 0 -3347336.592 -10855474.675 -22825103.659 10 0 60496 79200.00000 0 -1122603.050 -12523454.761 -22181786.990 10 0 60496 80100.00000 0 894072.359 -14280251.276 -21107168.225 10 0 60496 81000.00000 0 2664143.333 -16069396.097 -19622229.681 10 0 60496 81900.00000 0 4160555.987 -17829636.876 -17755923.225 10 0 60496 82800.00000 0 5368621.187 -19497433.910 -15544600.824 10 0 60496 83700.00000 0 6286362.950 -21009570.566 -13031301.846 10 0 60496 84600.00000 0 6924330.230 -22305767.900 -10264911.227 10 0 60496 85500.00000 0 7304881.999 -23331193.897 -7299205.126 99